Terminal Aerodrome Forecast
Issued by NWS

Home | Current Version | Previous Version | Text Only | Print | Product List | Glossary On
Versions: 1 2 3 4 5 6 7 8 9 10 11 12 13 14 15 16 17 18 19 20 21 22 23 24 25 26 27 28 29 30 31 32 33 34 35 36 37 38 39 40
000
FTUS41 KBOX 282322
TAFFMH
TAF
KFMH 282322Z 2900/2924 22012G24KT P6SM SCT200
     FM290900 24009KT 5SM BR BKN250
     FM291100 25009KT P6SM BKN040
     FM291400 25009KT P6SM SCT200=

USA.gov is the U.S. government's official web portal to all federal, state and local government web resources and services.